{"data":{"norad_id":48271,"intl_designator":"2021-034D","name":"TYVAK-182A","alt_names":[],"object_type":"PAYLOAD","status":"ACTIVE","operator":null,"country":"IT","launch_date":"2021-04-29","launch_site_code":"FRGUI","launch_vehicle":null,"mission":null,"orbit_class":"UNKNOWN","rcs_meters":null,"size_class":null,"mass_kg":null,"dimensions":null,"purposes":[],"wikipedia_slug":null,"has_3d_model":false,"image_url":null,"decayed_at":null,"tle_current":{"epoch":"2026-09-20T02:38:39.181344Z","epoch_age_seconds":121251,"freshness":"FRESH","line1":"1 48271U 21034D   26263.11017571  .00003437  00000+0  23435-3 0  9990","line2":"2 48271  97.5625 320.3758 0006005  20.1647 339.9817 15.06876580294121","mean_motion":15.0687658,"eccentricity":0.0006005,"inclination_deg":97.5625,"raan_deg":320.3758,"arg_perigee_deg":20.1647,"mean_anomaly_deg":339.9817,"bstar":0.00023435,"rev_number":29412,"period_min":95.561907266486,"perigee_km":541.5934989378,"apogee_km":549.90908877872,"semimajor_km":6923.8882938583,"source":"CELESTRAK","updated_at":"2026-09-21T09:00:07.706070Z"}}}